Weather History for Syracuse, NY

Change the Weather History Date:

Monday, March 10, 2014

  Actual Average Record
Temperature  
Mean Temperature 35 °F 32 °F  
Max Temperature 43 °F 41 °F 67 °F (1977)
Min Temperature 26 °F 23 °F -1 °F (1972)
Degree Days  
Heating Degree Days 30 33  
Month to date heating degree days 454 347  
Since 1 July heating degree days 5546 5178  
Cooling Degree Days 0 0  
Month to date cooling degree days 0 0  
Year to date cooling degree days 0 0  
Moisture  
Dew Point 25 °F    
Average Humidity 71    
Maximum Humidity 81    
Minimum Humidity 60    
Precipitation  
Precipitation T in 0.09 in 1.33 in (1964)
Month to date precipitation 0.19 0.87  
Year to date precipitation 5.74 5.44  
Snow  
Snow T in 0.80 in 10.30 in (1964)
Month to date snowfall 4.9 8.0  
Since 1 July snowfall 114.8 109.9  
Snow Depth 6.00 in    
Sea Level Pressure  
Sea Level Pressure 29.67 in    
Wind  
Wind Speed 5 mph (East)    
Max Wind Speed 13 mph    
Max Gust Speed 23 mph    
Visibility 9 miles    
Events Rain , Snow    
T = Trace of Precipitation, MM = Missing Value Source: NWS Daily Summary

Daily Weather History Graph

Daily Weather History Graph

Search for Another Location

Airport:

Trip Planner

Search our weather history database for the weather conditions in past years. The results will help you decide how hot, cold, wet, or windy it might be!

Date:

Astronomy

Mar. 10, 2014 Rise Set
Actual Time 7:25 AM EDT 7:04 PM EDT
Civil Twilight 6:56 AM EDT 7:33 PM EDT
Nautical Twilight 6:24 AM EDT 8:06 PM EDT
Astronomical Twilight 5:50 AM EDT 8:39 PM EDT
Moon 1:40 PM EDT (3/10) 3:41 AM EDT (3/10)
Length of Visible Light 12h 36m
Length of Day
11h 39m
Waxing Gibbous, 70% of the Moon is Illuminated
Mar 10
Waxing Gibbous
Mar 16
Full
Mar 23
Last Quarter
Mar 30
New
Apr 7
First Quarter

Hourly Weather History & Observations

Time (EDT) Temp. Windchill Dew Point Humidity Pressure Visibility Wind Dir Wind Speed Gust Speed Precip Events Conditions
12:54 AM 28.0 °F 24.2 °F 17.1 °F 63% 29.81 in 10.0 mi NE 3.5 mph - N/A   Overcast
1:54 AM 28.0 °F - 19.0 °F 69% 29.81 in 10.0 mi Calm Calm - N/A   Overcast
2:54 AM 28.0 °F 24.2 °F 19.0 °F 69% 29.79 in 10.0 mi East 3.5 mph - 0.00 in Snow Light Snow
3:54 AM 27.0 °F 21.6 °F 18.0 °F 69% 29.76 in 9.0 mi ENE 4.6 mph - 0.00 in Snow Light Snow
4:54 AM 27.0 °F 21.6 °F 19.0 °F 72% 29.75 in 10.0 mi ENE 4.6 mph - 0.00 in Snow Light Snow
5:54 AM 27.0 °F 21.6 °F 19.9 °F 75% 29.76 in 9.0 mi East 4.6 mph - 0.00 in Snow Light Snow
6:07 AM 26.6 °F 22.6 °F 19.4 °F 74% 29.75 in 9.0 mi East 3.5 mph - 0.00 in Snow Light Snow
6:19 AM 26.6 °F 21.2 °F 19.4 °F 74% 29.75 in 9.0 mi East 4.6 mph - 0.00 in Snow Light Snow
6:54 AM 26.1 °F 21.9 °F 19.9 °F 78% 29.76 in 10.0 mi East 3.5 mph - 0.00 in   Overcast
7:54 AM 27.0 °F - 21.0 °F 78% 29.75 in 10.0 mi Calm Calm - N/A   Overcast
8:54 AM 28.0 °F - 21.9 °F 78% 29.75 in 10.0 mi Calm Calm - N/A   Overcast
9:54 AM 30.9 °F - 24.1 °F 76% 29.75 in 10.0 mi Calm Calm - N/A   Overcast
10:54 AM 35.1 °F - 26.1 °F 70% 29.74 in 9.0 mi Calm Calm - N/A   Overcast
11:54 AM 37.9 °F 33.5 °F 28.0 °F 68% 29.73 in 10.0 mi West 5.8 mph - N/A   Overcast
12:54 PM 39.0 °F 32.3 °F 28.0 °F 65% 29.70 in 9.0 mi SW 10.4 mph - N/A   Overcast
1:09 PM 39.2 °F 32.0 °F 28.4 °F 65% 29.71 in 8.0 mi SW 11.5 mph - N/A   Overcast
1:54 PM 37.9 °F 33.5 °F 30.0 °F 73% 29.69 in 8.0 mi WSW 5.8 mph - N/A   Overcast
2:54 PM 39.0 °F 36.8 °F 28.9 °F 67% 29.65 in 8.0 mi WSW 3.5 mph - N/A   Overcast
3:54 PM 41.0 °F 39.0 °F 28.9 °F 62% 29.62 in 9.0 mi ENE 3.5 mph - N/A   Overcast
4:54 PM 39.9 °F 35.8 °F 30.0 °F 68% 29.59 in 9.0 mi East 5.8 mph - N/A   Overcast
5:54 PM 39.9 °F 33.4 °F 28.9 °F 65% 29.56 in 9.0 mi East 10.4 mph - N/A   Overcast
6:54 PM 39.0 °F 32.8 °F 28.9 °F 67% 29.55 in 8.0 mi East 9.2 mph - N/A   Mostly Cloudy
7:54 PM 37.0 °F 30.4 °F 28.9 °F 73% 29.52 in 10.0 mi East 9.2 mph - N/A   Overcast
8:54 PM 36.0 °F 30.3 °F 28.9 °F 76% 29.51 in 10.0 mi East 6.9 mph - 0.00 in Rain Light Rain
9:54 PM 35.1 °F 31.0 °F 28.9 °F 78% 29.49 in 10.0 mi East 4.6 mph - 0.00 in   Overcast
10:54 PM 36.0 °F 32.1 °F 28.9 °F 76% 29.49 in 9.0 mi East 4.6 mph - N/A   Overcast
11:54 PM 37.0 °F 32.4 °F 30.0 °F 76% 29.50 in 9.0 mi South 5.8 mph - N/A   Overcast